Date,TemperatureHighF,TemperatureAvgF,TemperatureLowF,DewpointHighF,DewpointAvgF,DewpointLowF,HumidityHigh,HumidityAvg,HumidityLow,PressureMaxIn,PressureMinIn,WindSpeedMaxMPH,WindSpeedAvgMPH,GustSpeedMaxMPH,PrecipitationSumIn
2013-10-1,57,49,43,49,44,40,89,85,70,30.06,29.87,6,0,7,0.10
2013-10-2,54,49,46,48,45,42,88,85,78,30.12,29.99,9,0,9,0.22
2013-10-3,54,48,41,49,44,38,89,85,79,30.39,30.12,4,0,4,0.02
2013-10-4,65,48,36,55,42,32,88,82,62,30.42,30.28,2,0,5,0.00
2013-10-5,72,52,39,56,45,36,88,79,49,30.30,30.08,3,0,4,0.00
2013-10-6,76,54,40,53,44,36,88,74,37,30.08,29.82,5,0,7,0.00
2013-10-7,61,53,49,50,47,45,88,81,59,29.96,29.86,11,0,12,0.12
2013-10-8,53,48,41,47,44,37,88,86,78,30.03,29.91,9,0,9,0.24
2013-10-9,64,45,34,51,40,30,88,83,63,30.09,29.91,5,0,5,0.00
2013-10-10,59,49,41,49,44,38,88,83,67,30.01,29.89,3,0,3,0.02
2013-10-11,54,49,46,51,45,42,88,85,77,30.08,30.00,4,0,4,0.56
2013-10-12,56,48,42,50,43,38,88,85,78,30.15,30.01,3,0,4,0.14
2013-10-13,59,44,38,51,40,34,89,85,75,30.31,30.15,5,0,5,0.00
2013-10-14,64,44,34,54,39,30,88,84,67,30.37,30.27,2,0,3,0.02
2013-10-15,64,46,35,54,41,31,88,84,68,30.33,30.12,6,0,6,0.00
2013-10-16,50,46,42,46,43,38,89,87,82,30.14,30.09,0,0,1,0.00
2013-10-17,60,46,40,53,42,37,89,86,75,30.21,30.14,0,0,2,0.00
2013-10-18,68,46,38,56,41,34,89,84,67,30.19,30.07,5,0,5,0.00
2013-10-19,47,44,40,44,40,36,88,85,81,30.13,30.09,3,0,4,0.00
2013-10-20,46,44,42,42,38,36,86,81,79,30.15,30.10,2,0,2,0.02
2013-10-21,49,44,41,45,38,35,87,79,75,30.12,30.04,0,0,1,0.02
2013-10-22,59,46,43,100,55,35,88,81,73,30.07,29.98,2,0,4,0.00
2013-10-23,69,47,40,100,48,34,88,81,70,30.00,29.90,0,0,2,0.04
2013-10-24,50,45,41,100,49,36,87,83,75,30.06,29.97,3,0,4,0.00
2013-10-25,55,46,42,100,59,38,88,80,76,30.25,30.06,0,0,14,0.04
2013-10-26,48,46,43,45,42,39,89,86,81,30.27,30.13,0,0,0,0.00
2013-10-27,50,46,41,46,42,37,89,85,79,30.13,29.85,1,0,1,0.14
2013-10-28,61,43,36,49,37,31,89,82,57,29.92,29.82,8,0,8,0.00
2013-10-29,60,40,30,44,35,27,90,82,53,30.00,29.91,2,0,4,0.00
2013-10-30,57,44,34,47,39,31,90,82,68,30.08,29.99,10,0,10,0.02
2013-10-31,52,48,46,48,44,42,88,85,81,30.19,30.04,0,0,0,0.10